Regional Weather Roundup
Issued by NWS

Home | Current Version | Previous Version | Graphics & Text | Print | Product List | Glossary Off
Versions: 1 2 3 4 5 6 7 8 9 10 11 12 13 14 15 16 17 18 19 20 21 22 23 24 25 26 27 28 29 30 31 32 33 34 35 36 37 38 39 40 41 42 43 44 45 46 47 48 49 50

000
ASUS43 KDTX 030301
RWRMI
MICHIGAN HOURLY REGIONAL WEATHER ROUNDUP
NATIONAL WEATHER SERVICE DETROIT/PONTIAC MI
1100 PM EDT TUE SEP 02 2014

NOTE: "FAIR" INDICATES FEW OR NO CLOUDS BELOW 12,000 FEET WITH NO
SIGNIFICANT WEATHER AND/OR OBSTRUCTION TO VISIBILITY.

MIZ047>049-052>055-059>063-066>070-074>076-081>083-030400-
SOUTHEAST LOWER MICHIGAN

CITY           SKY/WX    TMP DP  RH WIND       PRES   REMARKS
ADRIAN         CLEAR     63  61  93 CALM      29.96R
ALMA           CLEAR     59  57  94 CALM      29.94R
ANN ARBOR      CLEAR     59  56  89 W3        29.95R
BAD AXE        CLEAR     59  59 100 CALM      29.92R
CARO           CLEAR     58  58  97 CALM      29.92S
DETROIT CITY   CLEAR     69  61  75 CALM      29.94R
DETROIT        PTCLDY    66  62  87 CALM      29.94R
FLINT          CLEAR     64  58  80 CALM      29.93R
GROSSE ILE     CLEAR     66  64  94 CALM      29.93R
HILLSDALE      CLEAR     61  61  99 CALM      29.98R
HOWELL         CLEAR     62  60  93 SW3       29.95R

CITY           SKY/WX    TMP DP  RH WIND       PRES   REMARKS
JACKSON        CLEAR     62  58  86 CALM      29.96R
LAMBERTVILLE   PTCLDY    64  61  88 CALM      29.96R
LANSING        CLEAR     62  58  86 CALM      29.95R
LAPEER         FAIR      59  57  94 CALM      29.94R
MASON          CLEAR     61  58  90 CALM      29.95R
MONROE         CLEAR     64  63  94 CALM      29.93R
MT. CLEMENS    CLEAR     61  58  89 SW2       29.92S
PONTIAC        CLEAR     64  59  83 CALM      29.94R
PORT HOPE        N/A     63  56  78 SW6       29.89R
TRI CITIES     CLEAR     63  57  81 CALM      29.92R
TROY           CLEAR     69  60  72 CALM      29.95R
SAGINAW HB     CLEAR     61  61 100 S3        29.92R
$$
MIZ043>046-050>051-056>058-064>065-071>073-077>080-030400-
SOUTHWEST LOWER MICHIGAN

CITY           SKY/WX    TMP DP  RH WIND       PRES   REMARKS
BATTLE CREEK   CLEAR     65  60  84 CALM      29.96R
BENTON HARBOR  CLEAR     63  62  97 CALM      29.94R
BIG RAPIDS     CLEAR     59  58  97 CALM      29.93R
COLDWATER      CLEAR     64  62  95 CALM      29.96S
FREMONT        FAIR      59  57  94 S3        29.93R
HOLLAND        CLEAR     64  62  93 CALM      29.95R
GRAND RAPIDS   CLEAR     66  61  84 SW3       29.95R
IONIA          FAIR      64  58  82 SW3       29.94R
KALAMAZOO      PTCLDY    62  59  90 S3        29.96R
LUDINGTON      CLEAR     61  58  91 CALM      29.91S
MARSHALL       CLEAR     60  58  95 CALM      29.96R
MOUNT PLEASANT CLEAR     60  59  96 W3        29.92R
MUSKEGON       CLEAR     64  60  87 CALM      29.94R
SOUTH HAVEN    PTCLDY    64  63  97 CALM      29.94S
$$
MIZ016>042-030400-
NORTHERN LOWER MICHIGAN

CITY           SKY/WX    TMP DP  RH WIND       PRES   REMARKS
ALPENA         CLEAR     59  55  87 SW3       29.88S
BEAVER ISLAND    N/A     58  58  97 CALM      29.87S FOG
BELLAIRE       CLEAR     58  56  94 CALM      29.88S
CADILLAC       CLEAR     59  58  95 W3        29.92S
CHARLEVOIX     CLEAR     64  61  90 CALM      29.91R
FRANKFORT      CLEAR     62  59  88 CALM      29.89S
GAYLORD        CLEAR     59  55  87 CALM      29.91R
GRAYLING       CLEAR     56  56 100 CALM      29.92S
HARBOR SPRINGS PTCLDY    64  60  88 CALM      29.88S
HOUGHTON LAKE  CLEAR     55  55 100 CALM      29.92S
MANISTEE       CLEAR     59  55  88 CALM      29.91S
OSCODA         CLEAR     58  58  98 SW6       29.88S
PELLSTON       CLEAR     59  58  96 CALM      29.87F
ROGERS CITY    CLEAR     62  57  82 W5        29.88S
TRAVERSE CITY  CLEAR     65  58  78 CALM      29.87S
$$
MIZ007>008-015-030400-
EASTERN UPPER MICHIGAN

CITY           SKY/WX    TMP DP  RH WIND       PRES   REMARKS
KINROSS        CLEAR     59  59 100 SW5       29.86S
MACKINAC ISLAN CLEAR     58  57  97 W5        29.86F
NEWBERRY       CLEAR     54  53  96 W10       29.86S
S. S. MARIE    CLEAR     55  54  96 S3        29.85S
$$
MIZ004>006-011>014-085-030400-
CENTRAL UPPER MICHIGAN

CITY           SKY/WX    TMP DP  RH WIND       PRES   REMARKS
MANISTIQUE     FOG       53  53 100 CALM      29.85F VSB 1/4
ESCANABA       CLEAR     55  52  88 W3        29.85S
MENOMINEE      CLEAR     63  57  82 CALM      29.86S
SAWYER-GWINN   CLEAR     60  55  83 CALM      29.86S
$$
MIZ001>003-009>011-084-030400-
WESTERN UPPER MICHIGAN

CITY           SKY/WX    TMP DP  RH WIND       PRES   REMARKS
IRON MOUNTAIN  CLEAR     55  51  86 CALM      29.86S
HOUGHTON       CLOUDY    62  47  57 W12G22    29.83F
COPPER HARBOR    N/A     66  49  54 NW8G21    29.80S
$$

ABBREVIATIONS USED IN REMARKS
   TC - TEMPERATURE IN CELSIUS
  WCI - WIND CHILL INDEX
   HX - HEAT INDEX
  VSB - VISIBILITY



USA.gov is the U.S. government's official web portal to all federal, state and local government web resources and services.